Location: Dover
(48.8500°N, 53.9833°W)
Time: 07:12:40
(UTC+00:00)

COSMOS 2406 - Pass Details

Date: 14 November 2025
Orbit: 845 x 859 km, 71.0° (Epoch: 12 December)

Event Time Altitude Azimuth Distance (km) Brightness Sun altitude
Rises 22:17:42 0° 333° (NNW) 3,417 6.7 -23.1°
Reaches altitude 10° 22:20:12 10° 337° (NNW) 2,479 5.9 -23.5°
Maximum altitude 22:25:49 58° 57° (ENE) 985 3.2 -24.5°
Enters shadow 22:25:49 58° 57° (ENE) 985 3.2 -24.5°
